Location: *
(44.1392°N, 4.8079°E)
Time: 07:55:20
(UTC+00:00)

ATLAS 5 CENTAUR R/B - Pass Details

Date: 21 June 2021
Orbit: 510 x 1148 km, 63.4° (Epoch: 28 July)

Event Time Altitude Azimuth Distance (km) Brightness Sun altitude
Exits shadow 02:10:28 17° 257° (WSW) 1,415 3.0 -14.4°
Maximum altitude 02:13:05 36° 317° (NW) 914 2.5 -14.1°
Drops below altitude 10° 02:17:14 10° 25° (NNE) 2,016 5.6 -13.7°
Sets 02:19:52 0° 33° (NNE) 3,032 7.1 -13.4°
